Find Starlink 33914

NORAD ID: 63774 Int'l Des: 2025-089 Owner: SPXS Country: US Constellation: starlink operational
LEOCIRCULAR

現在のビュー

3D地球を読み込み中...

About Starlink 33914

Starlink 33914 (NORAD 63774) is a starlink constellation satellite (v2 mini) launched Apr 29, 2025 by SPXS of US. It operates in LEO, CIRCULAR orbit with a mass of 575.00 kg.

Starlink 33914について

説明を読み込み中...

次回通過

Passes for default location (London). Set your location on the main map for personalized predictions.

高度履歴

Loading altitude history...

軌道要素

1 63774U 25089Y 26195.02327144 .00013365 00000-0 49399-3 0 9992
2 63774 43.0012 47.8385 0000743 15.2599 344.8275 15.27602060 68320
Epoch: Jul 14, 2026 • Age: 20 hours

現在のステータス

高度 493.1 km
遠地点 / 近地点 N/A
速度 7.62 km/s
衛星直下点 -34.30°S, 30.9°E
打ち上げ日 Apr 29, 2025
運用期間 1.2 years
タイプ internet

技術仕様

分類 Payload
質量 575.00 kg
乾燥質量 530.00 kg
総質量 575.00 kg
長さ 0.30 m
直径 4.10 m
スパン 29.00 m
形状 Box + pan
製造者 SPXS
バスタイプ Starlink V2MO
フェーズステータス In Orbit
所有者/国 SPXS/US

Most Searched